Weather History for Baker, MT

Change the Weather History Date:

Sunday, May 19, 2013

  Actual Average Record
Temperature  
Mean Temperature 52 °F -  
Max Temperature 57 °F 60 °F 81 °F (2005)
Min Temperature 48 °F 39 °F 28 °F (2003)
Degree Days  
Heating Degree Days 12    
Growing Degree Days 2 (Base 50)    
Moisture  
Dew Point 48 °F    
Average Humidity 85    
Maximum Humidity 94    
Minimum Humidity 77    
Precipitation  
Precipitation 0.50 in - - ()
Sea Level Pressure  
Sea Level Pressure 29.79 in    
Wind  
Wind Speed 13 mph (North)    
Max Wind Speed 26 mph    
Max Gust Speed 33 mph    
Visibility 7 miles    
Events Rain    
Averages and records for this station are not official NWS values.
T = Trace of Precipitation, MM = Missing Value Source: NWS Daily Summary

Daily Weather History Graph

Daily Weather History Graph

Search for Another Location

Airport:

Trip Planner

Search our weather history database for the weather conditions in past years. The results will help you decide how hot, cold, wet, or windy it might be!

Date:

Astronomy

May. 19, 2013 Rise Set
Actual Time 5:18 AM MDT 8:28 PM MDT
Civil Twilight 4:42 AM MDT 9:04 PM MDT
Nautical Twilight 3:56 AM MDT 9:51 PM MDT
Astronomical Twilight 2:58 AM MDT 10:49 PM MDT
Moon 2:16 PM MDT (5/19) 2:04 AM MDT (5/19)
Length of Visible Light 16h 22m
Length of Day
15h 09m
Waxing Gibbous, 66% of the Moon is Illuminated
May 19
Waxing Gibbous
May 24
Full
May 31
Last Quarter
Jun 8
New
Jun 16
First Quarter

Hourly Weather History & Observations

Time (MDT) Temp. Dew Point Humidity Pressure Visibility Wind Dir Wind Speed Gust Speed Precip Events Conditions
12:17 AM 55.4 °F 51.8 °F 88% 29.80 in 10.0 mi NNE 5.8 mph - N/A   Mostly Cloudy
12:51 AM 57.0 °F 53.1 °F 87% 29.76 in 10.0 mi NNE 6.9 mph - N/A   Mostly Cloudy
2:51 AM 55.9 °F 52.0 °F 87% 29.76 in 8.0 mi North 6.9 mph - N/A   Overcast
3:14 AM 57.2 °F 51.8 °F 82% 29.80 in 7.0 mi North 8.1 mph - N/A   Overcast
3:24 AM 55.4 °F 53.6 °F 94% 29.80 in 8.0 mi North 4.6 mph - N/A   Overcast
3:51 AM 55.9 °F 52.0 °F 87% 29.75 in 9.0 mi North 5.8 mph - N/A   Overcast
4:22 AM 55.4 °F 51.8 °F 88% 29.80 in 7.0 mi North 6.9 mph - N/A   Overcast
4:51 AM 55.9 °F 53.1 °F 90% 29.74 in 5.0 mi North 6.9 mph - 0.00 in Rain Light Rain
5:49 AM 55.4 °F 51.8 °F 88% 29.79 in 3.0 mi NE 15.0 mph - 0.01 in   Overcast
5:51 AM 55.0 °F 52.0 °F 89% 29.74 in 3.0 mi NNE 15.0 mph - 0.01 in   Overcast
6:03 AM 55.4 °F 51.8 °F 88% 29.79 in 2.5 mi NNE 11.5 mph - 0.00 in Rain Light Rain
6:08 AM 55.4 °F 51.8 °F 88% 29.79 in 3.0 mi NNE 10.4 mph - 0.00 in Rain Light Rain
6:22 AM 55.4 °F 51.8 °F 88% 29.79 in 4.0 mi NNE 10.4 mph - 0.00 in   Overcast
6:51 AM 54.0 °F 51.1 °F 90% 29.76 in 2.5 mi NE 16.1 mph - 0.00 in Rain Light Rain
6:58 AM 53.6 °F 51.8 °F 94% 29.80 in 4.0 mi NNE 13.8 mph - 0.00 in Rain Light Rain
7:09 AM 53.6 °F 50.0 °F 88% 29.80 in 10.0 mi NE 13.8 mph - 0.00 in   Overcast
7:44 AM 53.6 °F 50.0 °F 88% 29.80 in 10.0 mi NNE 10.4 mph - 0.00 in Rain Light Rain
7:51 AM 54.0 °F 50.0 °F 86% 29.77 in 10.0 mi NNE 10.4 mph - 0.00 in Rain Light Rain
8:41 AM 53.6 °F 48.2 °F 82% 29.81 in 7.0 mi NE 13.8 mph - 0.01 in Rain Light Rain
8:51 AM 53.1 °F 48.9 °F 86% 29.79 in 6.0 mi NE 12.7 mph - 0.01 in Rain Light Rain
8:57 AM 53.6 °F 50.0 °F 88% 29.81 in 5.0 mi NE 11.5 mph - 0.00 in Rain Light Rain
9:51 AM 54.0 °F 48.9 °F 83% 29.79 in 10.0 mi NNE 19.6 mph - 0.00 in   Overcast
10:48 AM 51.8 °F 48.2 °F 88% 29.81 in 1.8 mi North 20.7 mph - 0.01 in Rain Light Rain
10:51 AM 52.0 °F 48.9 °F 89% 29.80 in 1.5 mi NNE 23.0 mph 28.8 mph 0.01 in   Overcast
11:01 AM 53.6 °F 48.2 °F 82% 29.81 in 2.5 mi NNE 19.6 mph 27.6 mph 0.00 in Rain Light Rain
11:51 AM 53.1 °F 48.0 °F 83% 29.79 in 10.0 mi North 17.3 mph 27.6 mph 0.00 in   Overcast
12:45 PM 53.6 °F 46.4 °F 77% 29.80 in 10.0 mi North 17.3 mph 24.2 mph N/A   Overcast
12:51 PM 54.0 °F 46.9 °F 77% 29.79 in 10.0 mi North 17.3 mph - N/A   Overcast
1:51 PM 54.0 °F 46.9 °F 77% 29.78 in 10.0 mi North 19.6 mph 28.8 mph N/A   Overcast
2:51 PM 54.0 °F 46.9 °F 77% 29.79 in 10.0 mi North 17.3 mph 27.6 mph N/A   Overcast
3:51 PM 53.1 °F 46.9 °F 80% 29.80 in 10.0 mi North 20.7 mph 26.5 mph 0.00 in Rain Light Rain
4:02 PM 53.6 °F 46.4 °F 77% 29.81 in 10.0 mi North 19.6 mph 26.5 mph 0.00 in Rain Light Rain
4:32 PM 51.8 °F 46.4 °F 82% 29.81 in 6.0 mi North 25.3 mph 31.1 mph 0.03 in Rain Light Rain
4:51 PM 51.1 °F 46.0 °F 83% 29.80 in 7.0 mi North 24.2 mph 32.2 mph 0.04 in Rain Light Rain
4:59 PM 51.8 °F 46.4 °F 82% 29.81 in 8.0 mi North 23.0 mph 32.2 mph 0.01 in Rain Light Rain
5:51 PM 51.1 °F 46.0 °F 83% 29.81 in 9.0 mi North 21.9 mph 32.2 mph 0.03 in Rain Light Rain
6:10 PM 51.8 °F 46.4 °F 82% 29.81 in 6.0 mi NNW 20.7 mph 31.1 mph 0.01 in Rain Light Rain
6:51 PM 50.0 °F 46.0 °F 86% 29.81 in 6.0 mi NNW 24.2 mph 33.4 mph 0.06 in Rain Light Rain
6:59 PM 50.0 °F 46.4 °F 87% 29.81 in 6.0 mi NNW 19.6 mph 33.4 mph 0.00 in Rain Light Rain
7:07 PM 50.0 °F 46.4 °F 87% 29.81 in 5.0 mi NNW 21.9 mph 28.8 mph 0.01 in Rain Light Rain
7:51 PM 50.0 °F 46.0 °F 86% 29.81 in 7.0 mi NNW 19.6 mph - 0.07 in Rain Light Rain
8:51 PM 50.0 °F 46.0 °F 86% 29.81 in 7.0 mi NNW 18.4 mph 27.6 mph 0.08 in Rain Rain
9:01 PM 50.0 °F 46.4 °F 87% 29.81 in 8.0 mi NNW 26.5 mph 33.4 mph 0.01 in Rain Light Rain
9:48 PM 48.2 °F 44.6 °F 87% 29.81 in 7.0 mi NNW 24.2 mph 31.1 mph 0.08 in Rain Rain
9:51 PM 48.9 °F 44.1 °F 83% 29.81 in 7.0 mi North 21.9 mph 31.1 mph 0.09 in Rain Rain
9:58 PM 48.2 °F 44.6 °F 87% 29.81 in 7.0 mi North 23.0 mph 31.1 mph 0.01 in Rain Rain
10:07 PM 48.2 °F 44.6 °F 87% 29.81 in 7.0 mi NNW 23.0 mph 32.2 mph 0.02 in Rain Rain
10:14 PM 48.2 °F 44.6 °F 87% 29.81 in 6.0 mi NNW 23.0 mph 31.1 mph 0.03 in Rain Rain
10:51 PM 48.9 °F 44.1 °F 83% 29.80 in 10.0 mi NNW 24.2 mph 28.8 mph 0.07 in Rain Light Rain
11:16 PM 48.2 °F 44.6 °F 87% 29.79 in 8.0 mi NNW 25.3 mph 33.4 mph 0.02 in Rain Light Rain
11:20 PM 48.2 °F 44.6 °F 87% 29.79 in 8.0 mi NNW 24.2 mph 32.2 mph 0.02 in Rain Light Rain
11:51 PM 48.9 °F 45.0 °F 86% 29.78 in 10.0 mi NNW 24.2 mph 32.2 mph 0.03 in Rain Light Rain